Weather History for Wrangell, AK

Change the Weather History Date:

Tuesday, July 29, 2014

  Actual Average Record
Temperature  
Mean Temperature 56 °F -  
Max Temperature 60 °F 65 °F 75 °F (2013)
Min Temperature 51 °F 50 °F 41 °F (1968)
Degree Days  
Heating Degree Days 10    
Growing Degree Days 6 (Base 50)    
Moisture  
Dew Point 51 °F    
Average Humidity 85    
Maximum Humidity 94    
Minimum Humidity 72    
Precipitation  
Precipitation 0.83 in - - ()
Sea Level Pressure  
Sea Level Pressure 30.05 in    
Wind  
Wind Speed 3 mph (SSE)    
Max Wind Speed 13 mph    
Max Gust Speed 16 mph    
Visibility 9 miles    
Events      
Averages and records for this station are not official NWS values.
T = Trace of Precipitation, MM = Missing Value Source: NWS Daily Summary

Daily Weather History Graph

Daily Weather History Graph

Search for Another Location

Airport:

Trip Planner

Search our weather history database for the weather conditions in past years. The results will help you decide how hot, cold, wet, or windy it might be!

Date:

Astronomy

Jul. 29, 2014 Rise Set
Actual Time 4:45 AM AKDT 9:04 PM AKDT
Civil Twilight 3:54 AM AKDT 9:55 PM AKDT
Nautical Twilight 2:34 AM AKDT 11:13 PM AKDT
Astronomical Twilight Sun does not rise 12:23 AM AKDT
Moon 8:11 AM AKDT (7/29) 9:32 PM AKDT (7/29)
Length of Visible Light 18h 00m
Length of Day
16h 19m
Waxing Crescent, 7% of the Moon is Illuminated
Jul 29
Waxing Crescent
Aug 3
First Quarter
Aug 10
Full
Aug 17
Last Quarter
Aug 25
New

Hourly Weather History & Observations

Time (AKDT) Temp. Dew Point Humidity Pressure Visibility Wind Dir Wind Speed Gust Speed Precip Events Conditions
12:16 AM 57.2 °F 53.6 °F 88% 30.02 in 10.0 mi SE 4.6 mph - N/A   Overcast
12:36 AM 57.2 °F 53.6 °F 88% 30.02 in 10.0 mi ESE 3.5 mph - N/A   Overcast
12:56 AM 57.2 °F 53.6 °F 88% 30.01 in 10.0 mi ESE 3.5 mph - N/A   Mostly Cloudy
1:16 AM 57.2 °F 53.6 °F 88% 30.01 in 10.0 mi SSE 5.8 mph - N/A   Overcast
1:36 AM 57.2 °F 53.6 °F 88% 30.01 in 10.0 mi NNE 3.5 mph - N/A   Overcast
1:56 AM 57.2 °F 51.8 °F 82% 30.01 in 10.0 mi Calm Calm - N/A   Overcast
2:16 AM 57.2 °F 53.6 °F 88% 30.00 in 10.0 mi SSE 3.5 mph - N/A   Overcast
2:36 AM 57.2 °F 53.6 °F 88% 30.00 in 10.0 mi Calm Calm - N/A   Overcast
2:56 AM 55.4 °F 51.8 °F 88% 30.00 in 10.0 mi Calm Calm - 0.01 in   Overcast
3:16 AM 55.4 °F 51.8 °F 88% 29.99 in 10.0 mi Calm Calm - N/A   Overcast
3:36 AM 55.4 °F 51.8 °F 88% 29.99 in 10.0 mi Calm Calm - N/A   Overcast
3:56 AM 55.4 °F 51.8 °F 88% 29.99 in 8.0 mi Calm Calm - N/A   Overcast
4:16 AM 55.4 °F 51.8 °F 88% 29.99 in 4.0 mi Calm Calm - N/A   Overcast
4:36 AM 55.4 °F 51.8 °F 88% 29.99 in 9.0 mi Calm Calm - 0.01 in   Overcast
4:56 AM 55.4 °F 51.8 °F 88% 29.99 in 5.0 mi Calm Calm - 0.03 in   Overcast
5:16 AM 55.4 °F 51.8 °F 88% 29.98 in 7.0 mi Calm Calm - 0.01 in   Overcast
5:36 AM 55.4 °F 51.8 °F 88% 29.98 in 1.0 mi Calm Calm - 0.02 in   Overcast
5:56 AM 55.4 °F 51.8 °F 88% 29.98 in 4.0 mi Calm Calm - 0.03 in   Partly Cloudy
6:16 AM 55.4 °F 51.8 °F 88% 29.98 in 0.5 mi Calm Calm - N/A   Overcast
6:36 AM 55.4 °F 53.6 °F 94% 29.98 in 10.0 mi South 4.6 mph - N/A   Overcast
6:56 AM 55.4 °F 51.8 °F 88% 29.97 in 10.0 mi NNW 3.5 mph - N/A   Overcast
7:16 AM 55.4 °F 51.8 °F 88% 29.97 in 10.0 mi Calm Calm - N/A   Overcast
7:36 AM 55.4 °F 51.8 °F 88% 29.97 in 10.0 mi West 4.6 mph - N/A   Overcast
7:56 AM 55.4 °F 51.8 °F 88% 29.97 in 10.0 mi WNW 3.5 mph - N/A   Overcast
8:16 AM 55.4 °F 50.0 °F 82% 29.97 in 10.0 mi Calm Calm - N/A   Overcast
8:36 AM 55.4 °F 50.0 °F 82% 29.97 in 10.0 mi NW 3.5 mph - 0.01 in   Overcast
8:56 AM 55.4 °F 51.8 °F 88% 29.97 in 10.0 mi Calm Calm - 0.02 in   Overcast
9:16 AM 57.2 °F 53.6 °F 88% 29.97 in 10.0 mi East 5.8 mph - 0.03 in   Overcast
9:36 AM 55.4 °F 51.8 °F 88% 29.98 in 4.0 mi East 3.5 mph - 0.17 in   Overcast
9:56 AM 55.4 °F 51.8 °F 88% 29.97 in 10.0 mi Calm Calm - 0.19 in   Overcast
10:16 AM 57.2 °F 53.6 °F 88% 29.97 in 10.0 mi SSE 6.9 mph - N/A   Overcast
10:36 AM 57.2 °F 53.6 °F 88% 29.97 in 10.0 mi SE 4.6 mph - N/A   Overcast
10:56 AM 59.0 °F 53.6 °F 82% 29.98 in 10.0 mi NW 3.5 mph - N/A   Overcast
11:16 AM 60.8 °F 55.4 °F 82% 29.97 in 10.0 mi NNW 4.6 mph - N/A   Overcast
11:36 AM 59.0 °F 53.6 °F 82% 29.98 in 10.0 mi West 6.9 mph - N/A   Overcast
11:56 AM 57.2 °F 51.8 °F 82% 29.98 in 10.0 mi West 8.1 mph - N/A   Overcast
12:16 PM 60.8 °F 55.4 °F 82% 29.97 in 10.0 mi NW 5.8 mph - N/A   Overcast
12:36 PM 57.2 °F 53.6 °F 88% 29.98 in 10.0 mi WNW 4.6 mph - N/A   Overcast
12:56 PM 57.2 °F 51.8 °F 82% 29.98 in 10.0 mi Calm Calm - N/A   Overcast
1:16 PM 57.2 °F 53.6 °F 88% 29.99 in 10.0 mi Calm Calm - 0.01 in   Overcast
1:36 PM 57.2 °F 51.8 °F 82% 29.99 in 10.0 mi NNW 6.9 mph - 0.05 in   Overcast
1:56 PM 57.2 °F 53.6 °F 88% 29.99 in 10.0 mi North 5.8 mph - 0.05 in   Overcast
2:16 PM 57.2 °F 53.6 °F 88% 30.02 in 10.0 mi West 5.8 mph - 0.05 in   Overcast
2:36 PM 55.4 °F 51.8 °F 88% 30.05 in 10.0 mi SW 6.9 mph - 0.41 in   Overcast
2:56 PM 55.4 °F 50.0 °F 82% 30.06 in 8.0 mi WSW 5.8 mph - 0.44 in   Overcast
3:16 PM 57.2 °F 51.8 °F 82% 30.07 in 8.0 mi SSW 8.1 mph - N/A   Overcast
3:36 PM 57.2 °F 51.8 °F 82% 30.09 in 8.0 mi Calm Calm - 0.01 in   Overcast
3:56 PM 57.2 °F 51.8 °F 82% 30.10 in 10.0 mi North 3.5 mph - 0.01 in   Overcast
4:16 PM 55.4 °F 50.0 °F 82% 30.11 in 10.0 mi Calm Calm - N/A   Overcast
4:36 PM 55.4 °F 48.2 °F 77% 30.12 in 10.0 mi SSW 9.2 mph - 0.02 in   Overcast
4:56 PM 55.4 °F 46.4 °F 72% 30.12 in 10.0 mi South 12.7 mph 16.1 mph 0.03 in   Overcast
5:16 PM 55.4 °F 48.2 °F 77% 30.14 in 10.0 mi SSE 3.5 mph - N/A   Overcast
5:36 PM 55.4 °F 48.2 °F 77% 30.15 in 10.0 mi NW 3.5 mph - N/A   Overcast
5:56 PM 57.2 °F 48.2 °F 72% 30.15 in 10.0 mi South 4.6 mph - N/A   Mostly Cloudy
6:16 PM 57.2 °F 50.0 °F 77% 30.16 in 10.0 mi Calm Calm - N/A   Mostly Cloudy
6:36 PM 55.4 °F 48.2 °F 77% 30.16 in 10.0 mi Calm Calm - N/A   Mostly Cloudy
6:56 PM 55.4 °F 50.0 °F 82% 30.16 in 10.0 mi East 4.6 mph - N/A   Mostly Cloudy
7:16 PM 55.4 °F 51.8 °F 88% 30.16 in 10.0 mi SE 3.5 mph - N/A   Mostly Cloudy
7:36 PM 55.4 °F 50.0 °F 82% 30.17 in 10.0 mi Calm Calm - N/A   Mostly Cloudy
7:56 PM 55.4 °F 48.2 °F 77% 30.17 in 10.0 mi NW 3.5 mph - N/A   Overcast
8:16 PM 53.6 °F 48.2 °F 82% 30.17 in 10.0 mi Calm Calm - N/A   Overcast
8:36 PM 53.6 °F 48.2 °F 82% 30.18 in 10.0 mi Calm Calm - 0.01 in   Overcast
8:56 PM 53.6 °F 48.2 °F 82% 30.18 in 10.0 mi Calm Calm - 0.01 in   Overcast
9:16 PM 51.8 °F 46.4 °F 82% 30.18 in 10.0 mi Calm Calm - N/A   Overcast
9:36 PM 51.8 °F 48.2 °F 88% 30.18 in 10.0 mi Calm Calm - 0.01 in   Overcast
9:56 PM 53.6 °F 48.2 °F 82% 30.18 in 10.0 mi SE 4.6 mph - 0.01 in   Overcast
10:16 PM 53.6 °F 48.2 °F 82% 30.19 in 10.0 mi Calm Calm - N/A   Overcast
10:36 PM 51.8 °F 48.2 °F 88% 30.19 in 10.0 mi East 4.6 mph - N/A   Overcast
10:56 PM 51.8 °F 48.2 °F 88% 30.19 in 10.0 mi ESE 6.9 mph - N/A   Overcast
11:16 PM 53.6 °F 48.2 °F 82% 30.19 in 10.0 mi SE 6.9 mph - N/A   Overcast
11:36 PM 53.6 °F 48.2 °F 82% 30.19 in 10.0 mi ESE 9.2 mph - N/A   Overcast
11:56 PM 53.6 °F 48.2 °F 82% 30.19 in 10.0 mi SE 8.1 mph - N/A   Overcast